STARLINK-5588, 55375

Orbit data source: Space-Track

STARLINK-5588, 55375 is a payload satellite owned by SpaceX/Seattle (US) in LEO that was launched on Thu, 26 Jan 2023 UTC via an FALCON 9 launch vehicle from the Air Force Eastern Test Range (AFETR). Payload-class satellites include a variety of spacecraft equipped with specific instruments for various scientific and technological missions. These include communications satellites like Starlink; space stations such as the ISS; scientific satellites like the Hubble; Earth observation satellites from companies like Planet Labs, Umbra, and HawkEye 360; GPS; miniature CubeSats for education and research; and military/defense satellites.

Loading next visibility...
Identifier
55375, 2023-013AW
Orbit
LEO
Country
Flag of USUS
Related business
Manufacturer
SpaceX/Seattle
Mission
Operational Commercial Communications
Bus & Motor
STARLINK, Unknown motor
Mass
305 kg wet, ~290 kg dry
Launch date (UTC)
2023-01-26 (3 years ago)
Launch vehicle
FALCON 9
Launch site
Air Force Eastern Test Range (AFETR)
Object type
Payload
Rocket body
Debris
Shape & HBR
Box + 1 Pan, 10.1 m
Radar Cross Section
13.562 m², Large (>1 m²)

Expand to show TLE details & history
Last TLE update: 1 day ago

TLE from 1 day ago
0 STARLINK-5588
1 55375U 23013AW  25348.60513327 -.00000183  00000-0  15293-5 0  9991
2 55375  43.0048  55.3750 0001392 266.9198  93.1485 15.02528652158760
Epoch: 2025-12-14T14:31Z
TLE epoch observation values (Epoch: 2025-12-14T14:31:23.514Z)
Latitude
-0.00003°
Longitude
114.01134°
Altitude
558.934 km
Speed
7.584 km/s
True Right ascension
03h 41m 29s
True Declination
0° 00' 00"
Sunlit
Object was in full shadow at epoch
Visualization orbit readout
Latitude
Unknown
Longitude
Unknown
Altitude
Unknown
Speed
Unknown
Apparent Right ascension
Unknown
Apparent Declination
Unknown
Sunlit
N/A
Visualization observer readout
Local Sidereal Time
17:04:31
Azimuth
Unknown
Elevation
Unknown
Doppler factor
Unknown
Orbital elements
Apogee altitude
561.991 km
Perigee altitude
560.059 km
Semi-major axis
6,939.162 km
Eccentricity
0.00014
Inclination
43.0048°
RAAN
55.375°
Arg. of periapsis
266.9198°
True anomaly
93.16443°
Mean anomaly
93.1485°
Eccentric anomaly
93.15646°
Mean motion
3.75476 °/min
Orbital period
95.88 mins
BSTAR
0.0000015293
Loading maneuver chart data...
Computing Atmospheric mass density...
Loading historical data...
Loading historical data...
Loading historical data...
Loading historical data...
Loading historical data...
Loading historical data...
Loading historical data...

Documentation

Showing up to 5 results
|